CPX776 Details

Departure: Ben Gurion International Airport (LLBG)
Arrival: Liège Airport (EBLG) at N/A
Route: PURLA2G PURLA L53 KAROL L995 RDS UL609 MES UG18 FSK L608 LONTA L608 DOLEV ERKIR UQ863 GUPIN RIDSU L608 LIRSU
Notes:


Current Weather Information
LLBG 230720Z 07004KT 360V130 9999 FEW035 27/12 Q1009 NOSIG
EBLG 230720Z 04004KT CAVOK 11/10 Q1017 NOSIG